Location: Newark
(25.4800°N, 85.7200°E)
Time: 23:07:23
(UTC+00:00)

Transit 4A - Pass Details

Date: 03 September 2019
Orbit: 865 x 980 km, 66.8° (Epoch: 19 September)

Event Time Altitude Azimuth Distance (km) Brightness Sun altitude
Rises 07:24:38 0° 153° (SSE) 3,642 11.1 65.9°
Reaches altitude 10° 07:29:02 10° 125° (SE) 2,714 10.4 65.2°
Maximum altitude 07:31:23 12° 103° (ESE) 2,560 10.2 64.8°
Drops below altitude 10° 07:33:44 10° 81° (E) 2,725 10.2 64.4°
Sets 07:38:08 0° 53° (NE) 3,676 10.7 63.6°
